Clarksville, TN

8:45 AM CDT on May 21, 2018 (GMT -0500)
Outlaw

Weather History for KCKV - April, 2013

Change the Weather History Date:

Friday, April 26, 2013

  Actual Average Record
Temperature  
Mean Temperature 50 °F 61 °F  
Max Temperature 56 °F 72 °F 91 °F (1989)
Min Temperature 43 °F 49 °F 31 °F (1972)
Degree Days  
Heating Degree Days 15    
Month to date heating degree days 243  
Since 1 July heating degree days 3854  
Cooling Degree Days 0    
Month to date cooling degree days 42  
Year to date cooling degree days  
Moisture  
Dew Point 44 °F    
Average Humidity 82    
Maximum Humidity 96    
Minimum Humidity 55    
Precipitation  
Precipitation 0.22 in 0.19 in 1.67 in (1982)
Month to date precipitation 4.23 3.73  
Year to date precipitation 15.28  
Sea Level Pressure  
Sea Level Pressure 30.37 in    
Wind  
Wind Speed 4 mph (East)    
Max Wind Speed 20 mph    
Max Gust Speed 22 mph    
Visibility 8 miles    
Events Rain    
T = Trace of Precipitation, MM = Missing Value Source: NWS Daily Summary

Daily Weather History Graph

Daily Weather History Graph

Search for Another Location

Airport or City:

Astronomy

Apr. 26, 2013 Rise Set
Actual Time 6:01 AM CDT 7:33 PM CDT
Civil Twilight 5:34 AM CDT 8:01 PM CDT
Nautical Twilight 5:01 AM CDT 8:34 PM CDT
Astronomical Twilight 4:26 AM CDT 9:09 PM CDT
Moon 8:53 PM CDT (4/26) 6:30 AM CDT (4/26)
Length of Visible Light 14h 27m
Length of Day
13h 32m
Full, 99% of the Moon is Illuminated
Apr 26
Full
May 2
Last Quarter
May 9
New
May 17
First Quarter
May 24
Full

Hourly Weather History & Observations

Time (CDT) Temp. Windchill Dew Point Humidity Pressure Visibility Wind Dir Wind Speed Gust Speed Precip Events Conditions
12:52 AM 45.0 °F - 41.0 °F 86% 30.36 in 10.0 mi Calm Calm - N/A   Clear
1:52 AM 45.0 °F - 41.0 °F 86% 30.37 in 10.0 mi Calm Calm - N/A   Clear
2:52 AM 43.0 °F - 41.0 °F 93% 30.36 in 6.0 mi Calm Calm - N/A   Clear
3:52 AM 43.0 °F - 41.0 °F 93% 30.37 in 6.0 mi Calm Calm - N/A   Clear
4:52 AM 45.0 °F 42.6 °F 39.0 °F 80% 30.36 in 10.0 mi East 4.6 mph - N/A   Clear
5:52 AM 46.0 °F 42.5 °F 39.0 °F 76% 30.36 in 10.0 mi East 6.9 mph - N/A   Clear
6:52 AM 46.9 °F - 39.0 °F 74% 30.34 in 10.0 mi East 8.1 mph - N/A   Clear
7:52 AM 51.1 °F - 39.0 °F 63% 30.37 in 10.0 mi ESE 5.8 mph - N/A   Scattered Clouds
8:52 AM 54.0 °F - 39.9 °F 59% 30.39 in 10.0 mi ENE 4.6 mph - N/A   Partly Cloudy
9:52 AM 55.0 °F - 39.9 °F 57% 30.44 in 10.0 mi NNW 3.5 mph - N/A   Overcast
10:52 AM 55.9 °F - 42.1 °F 60% 30.46 in 10.0 mi Calm Calm - N/A   Mostly Cloudy
11:52 AM 54.0 °F - 44.1 °F 69% 30.42 in 8.0 mi Calm Calm - 0.01 in Rain Light Rain
12:52 PM 54.0 °F - 46.0 °F 75% 30.38 in 10.0 mi NE 9.2 mph - 0.00 in Rain Light Rain
1:52 PM 54.0 °F - 46.0 °F 75% 30.40 in 6.0 mi Calm Calm - 0.02 in Rain Light Rain
2:52 PM 52.0 °F - 48.9 °F 89% 30.42 in 4.0 mi Calm Calm - 0.06 in Rain Light Rain
3:20 PM 51.8 °F - 48.2 °F 88% 30.42 in 2.5 mi NNW 3.5 mph - 0.05 in Rain Rain
3:34 PM 51.8 °F - 48.2 °F 88% 30.42 in 5.0 mi NNE 5.8 mph - 0.06 in Rain Light Rain
3:52 PM 51.1 °F - 46.9 °F 86% 30.43 in 3.0 mi Variable 3.5 mph - 0.10 in Rain Rain
4:38 PM 51.8 °F - 46.4 °F 82% 30.41 in 10.0 mi South 9.2 mph 21.9 mph 0.01 in Rain Light Rain
4:52 PM 51.1 °F - 48.0 °F 89% 30.38 in 10.0 mi ESE 4.6 mph - 0.01 in Rain Light Rain
5:52 PM 51.1 °F - 46.9 °F 86% 30.30 in 10.0 mi ESE 12.7 mph - 0.02 in Rain Light Rain
6:52 PM 50.0 °F - 46.9 °F 89% 30.32 in 10.0 mi East 4.6 mph - 0.00 in   Clear
7:52 PM 50.0 °F - 46.9 °F 89% 30.27 in 10.0 mi ESE 12.7 mph - N/A   Overcast
8:52 PM 50.0 °F - 48.0 °F 93% 30.33 in 10.0 mi SE 3.5 mph - N/A   Overcast
9:52 PM 50.0 °F - 48.0 °F 93% 30.36 in 10.0 mi Calm Calm - N/A   Overcast
10:52 PM 50.0 °F - 48.0 °F 93% 30.34 in 5.0 mi ESE 4.6 mph - 0.07 in Rain Light Rain
11:52 PM 50.0 °F - 48.0 °F 93% 30.32 in 9.0 mi SSE 5.8 mph - 0.01 in Rain Light Rain